Torna al catalogo

COSMOS 1250

AttivoMilitareLEO
NORAD 12320·PAYLOAD·🇷🇺 Russia

Lanciato Mar 6, 1981 da Plesetsk Cosmodrome

Loading…

Prossimi Passaggi (prossime 24 ore)

TLE

AggiornatoSource: Space-Track

Epoca: Sep 14, 2026, 08:57 UTC

1 12320U 81022A   26257.37298412 -.00000020  00000-0 -19263-4 0  9998
2 12320  74.0274 230.2698 0053155 280.8630 234.0388 12.58283483 91125

Traccia COSMOS 1250 in tempo reale con AllMySat

Download on the App Store